[[{"header":{"parameterUnit":"m.s-1","parameterCategory":1,"la1":30.2991,"la2":30.254,"lo1":-89.0895,"lo2":-89.0444,"dy":0.0017,"dx":0.0017,"nx":28,"ny":28,"refTime":"2026-02-25T09:00:00:Z","depth":0,"parameterNumber":2,"parameterNumberName":"U-component_of_WINDS"},"data":[0,0,0,0,0,0,0,0,0,0,0,0,0,0,0,0,0,0,0,0,0,0,0,0,0,0,0,0,0,0,0,0,0,0,0,0,0,0,0,0,0,0,0,0,0,0,0,0,0,0,0,0,0,0,0,0,0,0,1.2101,1.2101,0,1.2083,1.2083,1.2082,1.2049,1.2048,1.2047,1.2047,1.2029,1.2029,1.2029,0,0,0,0,0,0,0,0,0,0,0,0,0,1.2108,1.2108,1.2101,1.2101,1.2101,1.2083,1.2083,1.2082,1.2049,1.2048,1.2047,1.2046,1.2029,1.2029,1.2029,0,0,0,0,0,0,0,0,0,0,0,0,0,1.2099,1.2108,1.2101,1.2082,1.208,1.2083,1.2083,1.2082,1.2049,1.2048,1.2047,1.2046,1.2029,1.2029,1.2029,1.205,0,0,1.203,1.203,0,0,0,0,0,0,0,0,1.21,1.2099,1.2085,1.2083,1.2081,1.2067,1.2079,1.2072,1.2049,1.2061,1.2047,1.2046,1.2043,1.2042,1.204,1.2049,1.2048,1.203,1.203,1.203,1.203,0,0,0,0,0,0,0,1.21,1.21,1.2094,1.2085,1.2082,1.2074,1.2072,1.2077,1.2057,1.206,1.2057,1.2055,1.2041,1.204,1.204,1.2048,1.203,1.203,1.203,1.203,1.2073,1.2074,0,0,0,0,0,0,1.2104,1.21,1.2095,1.2093,1.2088,1.2075,1.2072,1.2073,1.2057,1.2054,1.2056,1.2054,1.204,1.2039,1.2039,1.2062,1.203,1.203,1.203,1.2072,1.2074,1.2075,0,0,0,0,0,0,1.2104,1.2104,1.2095,1.2096,1.2095,1.2076,1.2076,1.2073,1.2071,1.2055,1.2051,1.2059,1.2039,1.2039,1.2047,1.2061,1.203,1.2031,1.2071,1.2073,1.2074,1.2109,0,0,0,0,0,0,1.2104,1.2104,1.2111,1.2097,1.2095,1.2104,1.2077,1.2073,1.2072,1.2069,1.2056,1.2053,1.2039,1.2047,1.2048,1.2061,1.2031,1.207,1.2072,1.2074,1.2106,1.2111,1.2115,0,0,0,0,0,1.2105,1.2122,1.2112,1.2111,1.2103,1.2105,1.2104,1.2087,1.2073,1.208,1.207,1.2053,1.2059,1.2049,1.2049,1.2062,1.2069,1.2071,1.2073,1.2104,1.211,1.2115,0,0,0,0,0,0,1.2139,1.212,1.2108,1.2121,1.2115,1.2099,1.2108,1.2094,1.2091,1.2088,1.2068,1.2065,1.2077,1.207,1.2058,1.2081,1.2062,1.2064,1.2085,1.209,1.2095,1.2096,1.2031,0,0,0,0,0,1.2148,1.215,1.2134,1.2147,1.2144,1.2127,1.2127,1.2114,1.2107,1.2104,1.2094,1.2088,1.2088,1.2089,1.2089,1.2105,1.2102,1.2114,1.2119,1.2123,1.2125,1.2133,1.2139,1.2082,1.2082,1.2082,0,0,1.2167,1.2157,1.2159,1.2153,1.2147,1.215,1.2125,1.2129,1.2131,1.2105,1.2112,1.2105,1.2097,1.211,1.2115,1.2104,1.214,1.2126,1.2129,1.2129,1.2136,1.2142,1.2147,1.2084,1.2083,1.2083,0,0,1.2202,1.2195,1.2205,1.2199,1.219,1.2178,1.218,1.2167,1.2161,1.2168,1.2148,1.2151,1.2152,1.2147,1.2145,1.2179,1.2164,1.218,1.2203,1.2212,1.2216,1.222,1.2232,1.2237,1.2182,1.2182,1.2182,0,1.2227,1.223,1.2212,1.2217,1.2215,1.2191,1.2201,1.2197,1.2188,1.2187,1.2176,1.2177,1.217,1.2181,1.219,1.2189,1.2191,1.2181,1.2217,1.2221,1.2224,1.2235,1.224,1.2184,1.2184,1.2184,1.2183,0,1.2261,1.2264,1.2273,1.2265,1.2264,1.2272,1.2255,1.2256,1.2244,1.2234,1.2242,1.2232,1.2229,1.2231,1.2219,1.2241,1.2235,1.2221,1.2201,1.2232,1.2242,1.2246,1.2187,1.2186,1.2185,1.2185,0,0,1.2317,1.2298,1.2302,1.2298,1.2286,1.2288,1.2295,1.2292,1.2294,1.2289,1.2294,1.2296,1.2283,1.228,1.2268,1.2275,1.2303,1.226,1.226,1.2268,1.2326,1.2337,1.2342,1.2293,1.2294,1.2294,1.2327,0,1.2349,1.236,1.2344,1.2358,1.2361,1.2338,1.2344,1.2338,1.2329,1.233,1.232,1.2321,1.2304,1.2302,1.2309,1.2298,1.2314,1.2296,1.2298,1.2298,1.23,1.2347,1.2358,1.2389,1.2331,1.2331,1.2332,0,1.2389,1.2385,1.24,1.2387,1.2388,1.2393,1.239,1.2391,1.2383,1.2376,1.2374,1.2359,1.2365,1.2346,1.2355,1.2342,1.2343,1.2338,1.2338,1.2338,1.2317,1.2347,1.2399,1.2403,1.2338,1.2337,1.2337,0,1.2428,1.2427,1.2435,1.2433,1.2418,1.2423,1.2417,1.2409,1.2408,1.2405,1.2404,1.2402,1.2401,1.24,1.2385,1.2372,1.2395,1.2375,1.239,1.239,1.2395,1.2395,1.2447,1.2396,1.2396,1.2396,1.2396,0,1.2466,1.2475,1.2453,1.2458,1.2468,1.245,1.2461,1.2453,1.2446,1.2449,1.243,1.2434,1.2414,1.2416,1.2405,1.2413,1.2413,1.2408,1.2404,1.2409,1.241,1.2408,1.2406,1.2397,1.2397,1.2396,1.2396,0,1.251,1.2496,1.2503,1.2489,1.2486,1.2494,1.2482,1.2487,1.2477,1.2481,1.2482,1.2466,1.2467,1.2452,1.245,1.2443,1.2457,1.245,1.2459,1.2457,1.2472,1.2471,1.2525,1.2531,1.2477,1.2477,1.2478,0,1.2535,1.2542,1.2529,1.253,1.2525,1.2527,1.2526,1.2508,1.2508,1.25,1.2506,1.2506,1.2504,1.2507,1.2496,1.2495,1.2488,1.2507,1.2487,1.2492,1.2487,1.2487,1.2488,1.251,1.2511,1.2512,1.2512,0,1.2581,1.2573,1.2572,1.257,1.2569,1.2566,1.2562,1.2564,1.2545,1.2546,1.2547,1.2546,1.2544,1.2544,1.2541,1.2535,1.2521,1.2518,1.2522,1.2526,1.2531,1.2529,1.247,1.2517,1.2517,1.2516,1.2516,1.2516,1.2616,1.2621,1.2612,1.2612,1.2607,1.2604,1.2607,1.2598,1.2598,1.2595,1.2585,1.2588,1.2581,1.2575,1.2571,1.2573,1.2564,1.2568,1.2569,1.2571,1.2574,1.2531,1.2572,1.2572,1.2572,1.2572,1.2572,0,1.266,1.2653,1.2654,1.2648,1.2649,1.2635,1.263,1.2631,1.2633,1.2628,1.2627,1.2628,1.2628,1.2617,1.2616,1.262,1.2613,1.262,1.2619,1.2618,1.2582,1.2579,1.2625,1.2625,1.2625,1.2625,1.2625,1.2625,1.2683,1.269,1.2682,1.2688,1.2681,1.2683,1.2682,1.2679,1.2674,1.2676,1.2676,1.2669,1.2661,1.2659,1.2659,1.2655,1.2656,1.2665,1.2659,1.2626,1.2621,1.2616,1.2613,1.2665,1.2665,1.2695,1.2695,1.2696]},{"header":{"parameterUnit":"m.s-1","parameterCategory":1,"la1":30.2991,"la2":30.254,"lo1":-89.0895,"lo2":-89.0444,"dy":0.0017,"dx":0.0017,"nx":28,"ny":28,"refTime":"2026-02-25T09:00:00:Z","depth":0,"parameterNumber":3,"parameterNumberName":"V-component_of_WINDS"},"data":[0,0,0,0,0,0,0,0,0,0,0,0,0,0,0,0,0,0,0,0,0,0,0,0,0,0,0,0,0,0,0,0,0,0,0,0,0,0,0,0,0,0,0,0,0,0,0,0,0,0,0,0,0,0,0,0,0,0,5.138,5.1381,0,5.1441,5.1441,5.1442,5.1429,5.1428,5.1427,5.1426,5.1484,5.1486,5.1489,0,0,0,0,0,0,0,0,0,0,0,0,0,5.1251,5.1253,5.138,5.1381,5.1382,5.1441,5.1441,5.1442,5.1429,5.1428,5.1427,5.1425,5.1483,5.1486,5.1489,0,0,0,0,0,0,0,0,0,0,0,0,0,5.1308,5.1254,5.138,5.1383,5.1383,5.144,5.1441,5.1442,5.1429,5.1428,5.1426,5.1425,5.1482,5.1486,5.1489,5.1547,0,0,5.1501,5.1503,0,0,0,0,0,0,0,0,5.1305,5.1313,5.1381,5.1382,5.1383,5.1426,5.1417,5.1477,5.143,5.1412,5.1426,5.1424,5.1465,5.1471,5.1485,5.1549,5.1552,5.1501,5.1504,5.1505,5.1507,0,0,0,0,0,0,0,5.1301,5.1311,5.1404,5.1382,5.1384,5.138,5.1386,5.1428,5.1447,5.1413,5.1413,5.142,5.1466,5.1482,5.1487,5.1553,5.1501,5.1505,5.1507,5.1509,5.1667,5.1669,0,0,0,0,0,0,5.1297,5.1307,5.1402,5.1406,5.134,5.1383,5.139,5.1414,5.1447,5.145,5.1421,5.1419,5.1476,5.1482,5.1489,5.1559,5.1505,5.1509,5.1511,5.1666,5.1668,5.167,0,0,0,0,0,0,5.1294,5.1305,5.14,5.1356,5.1368,5.1387,5.1414,5.1416,5.1432,5.1453,5.1456,5.1435,5.1475,5.1483,5.1533,5.156,5.1511,5.1514,5.1663,5.1666,5.1669,5.1699,0,0,0,0,0,0,5.129,5.1305,5.1327,5.1357,5.1371,5.1444,5.1415,5.1418,5.1439,5.1437,5.1466,5.1469,5.1474,5.1527,5.1537,5.1565,5.1517,5.1661,5.1665,5.1668,5.1695,5.1702,5.1708,0,0,0,0,0,5.1286,5.1332,5.1328,5.134,5.1399,5.1445,5.1453,5.1459,5.1441,5.1464,5.1478,5.1468,5.1556,5.1532,5.1543,5.1573,5.1659,5.1664,5.1668,5.1692,5.1701,5.1708,0,0,0,0,0,0,5.1303,5.1336,5.1332,5.139,5.1415,5.1443,5.1472,5.1467,5.1497,5.1494,5.1499,5.1505,5.1556,5.1569,5.1542,5.163,5.1605,5.1611,5.162,5.1628,5.1634,5.163,5.1521,0,0,0,0,0,5.1314,5.135,5.1376,5.1424,5.1437,5.1452,5.1473,5.1475,5.1501,5.1511,5.1528,5.1553,5.1586,5.1608,5.1639,5.1697,5.1703,5.1723,5.1729,5.1734,5.174,5.1772,5.1781,5.1684,5.1684,5.1684,0,0,5.1336,5.1358,5.138,5.1428,5.1448,5.1484,5.1461,5.15,5.1527,5.1517,5.1565,5.1579,5.1606,5.1661,5.1685,5.1673,5.1768,5.174,5.1744,5.1747,5.1778,5.1787,5.1795,5.1687,5.1686,5.1686,0,0,5.1394,5.1415,5.1458,5.1479,5.151,5.152,5.1531,5.156,5.1569,5.1618,5.1612,5.1643,5.17,5.172,5.1738,5.1806,5.1798,5.1816,5.1849,5.188,5.1888,5.1895,5.192,5.1928,5.1821,5.1821,5.1821,0,5.1417,5.1473,5.148,5.1521,5.1542,5.1536,5.1579,5.1599,5.1638,5.1652,5.1639,5.1711,5.1729,5.1788,5.1805,5.1819,5.1831,5.1812,5.1887,5.1894,5.19,5.1924,5.1933,5.1823,5.1823,5.1823,5.1823,0,5.15,5.1539,5.1569,5.161,5.1634,5.1676,5.1688,5.1712,5.1713,5.1724,5.1775,5.1796,5.1833,5.1847,5.1847,5.1907,5.1898,5.1886,5.186,5.1911,5.1934,5.1943,5.1826,5.1825,5.1825,5.1824,0,0,5.157,5.1616,5.1627,5.1645,5.168,5.1709,5.1751,5.1788,5.1809,5.1836,5.187,5.1919,5.1908,5.1928,5.1931,5.1959,5.2012,5.1942,5.1943,5.1955,5.2079,5.2089,5.21,5.2007,5.2009,5.201,5.2077,0,5.1633,5.1707,5.1715,5.1781,5.1817,5.1813,5.1849,5.1873,5.1885,5.1917,5.1929,5.1964,5.1946,5.1959,5.1986,5.2,5.2037,5.1995,5.2039,5.2041,5.2033,5.2111,5.2121,5.2183,5.2086,5.2087,5.2089,0,5.1715,5.1748,5.1818,5.1849,5.1864,5.1896,5.1932,5.1962,5.199,5.1996,5.202,5.2019,5.2061,5.2034,5.2092,5.2063,5.2081,5.2091,5.2094,5.2098,5.2068,5.2118,5.2203,5.2213,5.2102,5.2101,5.21,0,5.1761,5.1821,5.1871,5.1887,5.1924,5.1947,5.1963,5.199,5.2012,5.2042,5.2057,5.2091,5.211,5.2136,5.2144,5.2124,5.2202,5.2176,5.2208,5.2208,5.2225,5.2224,5.2315,5.2236,5.2236,5.2236,5.2236,0,5.183,5.1873,5.1892,5.1923,5.1971,5.198,5.2027,5.2042,5.2066,5.2099,5.2096,5.2127,5.2136,5.2168,5.2175,5.2222,5.223,5.2236,5.2238,5.2237,5.2236,5.2249,5.2245,5.2239,5.2238,5.2238,5.2237,0,5.1888,5.1903,5.1958,5.1989,5.1998,5.2032,5.2058,5.2088,5.21,5.2142,5.2152,5.217,5.2208,5.2219,5.2264,5.2269,5.2324,5.2321,5.2315,5.2315,5.2348,5.2345,5.245,5.2465,5.2377,5.2377,5.2378,0,5.1931,5.1965,5.2001,5.2024,5.2041,5.2078,5.2101,5.2111,5.2135,5.217,5.2195,5.2233,5.2264,5.2325,5.2341,5.2376,5.2374,5.2409,5.2379,5.2378,5.2375,5.2373,5.2377,5.2414,5.2415,5.2416,5.2417,0,5.2007,5.2013,5.2047,5.2085,5.2113,5.2143,5.2171,5.219,5.2203,5.223,5.227,5.2294,5.2342,5.2379,5.2415,5.243,5.2426,5.2426,5.2435,5.2435,5.2431,5.2434,5.2331,5.2423,5.2423,5.2422,5.2422,5.2422,5.2059,5.2089,5.212,5.2158,5.2181,5.2208,5.2238,5.2254,5.2288,5.2329,5.2332,5.2375,5.2402,5.245,5.2467,5.2501,5.249,5.2504,5.2508,5.2511,5.2514,5.2425,5.2507,5.2507,5.2507,5.2507,5.2506,0,5.2135,5.2155,5.219,5.2231,5.2262,5.2257,5.2288,5.2313,5.2352,5.2379,5.241,5.2456,5.2493,5.2513,5.255,5.2572,5.2571,5.2582,5.258,5.2584,5.2521,5.2509,5.2582,5.2582,5.2582,5.2582,5.2582,5.2582,5.2178,5.2229,5.2239,5.2301,5.232,5.2364,5.2382,5.2407,5.2429,5.2481,5.2512,5.2525,5.255,5.2588,5.2622,5.2627,5.264,5.2652,5.2656,5.2596,5.2588,5.2581,5.257,5.2655,5.2655,5.2716,5.2717,5.2717]}]]